Time,TemperatureF,DewpointF,PressureIn,WindDirection,WindDirectionDegrees,WindSpeedMPH,WindSpeedGustMPH,Humidity,HourlyPrecipIn,Conditions,Clouds,dailyrainin,SoftwareType,DateUTC
2015-05-26 00:01:00,62.6,60.8,29.72,ESE,106,0.0,2.0,94,0.00,,,0.29,VWS V14.01,2015-05-26 05:01:00,
2015-05-26 00:06:00,62.5,60.5,29.70,SE,141,3.0,3.0,93,0.00,,,0.00,VWS V14.01,2015-05-26 05:06:00,
2015-05-26 00:16:00,62.5,60.5,29.70,SSE,160,2.0,2.0,93,0.01,,,0.01,VWS V14.01,2015-05-26 05:16:00,
2015-05-26 00:21:00,62.5,60.5,29.75,South,174,0.0,2.0,93,0.01,,,0.01,VWS V14.01,2015-05-26 05:21:00,
2015-05-26 00:26:00,62.5,60.5,29.75,South,169,0.0,2.0,93,0.01,,,0.01,VWS V14.01,2015-05-26 05:26:00,
2015-05-26 00:31:00,62.4,60.3,29.75,SE,134,0.0,2.0,93,0.01,,,0.01,VWS V14.01,2015-05-26 05:31:00,
2015-05-26 00:36:00,62.3,60.2,29.74,SE,125,0.0,2.0,93,0.01,,,0.01,VWS V14.01,2015-05-26 05:36:00,
2015-05-26 00:46:00,62.2,60.2,29.74,SSE,148,0.0,2.0,93,0.01,,,0.01,VWS V14.01,2015-05-26 05:46:00,
2015-05-26 00:51:00,62.2,60.2,29.75,SSE,148,0.0,2.0,93,0.01,,,0.01,VWS V14.01,2015-05-26 05:51:00,
2015-05-26 00:56:00,62.1,60.1,29.75,NE,34,0.0,2.0,93,0.01,,,0.01,VWS V14.01,2015-05-26 05:56:00,
2015-05-26 01:01:00,62.0,60.0,29.75,SSW,206,0.0,2.0,93,0.01,,,0.01,VWS V14.01,2015-05-26 06:01:00,
2015-05-26 01:06:00,62.0,60.3,29.75,SSW,205,0.0,2.0,94,0.01,,,0.01,VWS V14.01,2015-05-26 06:06:00,
2015-05-26 01:16:00,62.0,60.3,29.75,SE,142,0.0,2.0,94,0.00,,,0.01,VWS V14.01,2015-05-26 06:16:00,
2015-05-26 01:26:00,61.9,60.2,29.76,SSE,155,1.0,2.0,94,0.00,,,0.01,VWS V14.01,2015-05-26 06:26:00,
2015-05-26 01:31:00,61.8,60.1,29.76,SSE,159,0.0,2.0,94,0.00,,,0.01,VWS V14.01,2015-05-26 06:31:00,
2015-05-26 01:36:00,61.8,60.1,29.76,SSW,205,0.0,2.0,94,0.00,,,0.01,VWS V14.01,2015-05-26 06:36:00,
2015-05-26 01:41:00,61.7,59.7,29.76,SSW,202,4.0,4.0,93,0.00,,,0.01,VWS V14.01,2015-05-26 06:41:00,
2015-05-26 01:46:00,61.7,59.7,29.76,SSW,194,0.0,2.0,93,0.00,,,0.01,VWS V14.01,2015-05-26 06:46:00,
2015-05-26 01:51:00,61.7,59.7,29.76,South,182,1.0,2.0,93,0.00,,,0.01,VWS V14.01,2015-05-26 06:51:00,
2015-05-26 01:56:00,61.6,59.6,29.76,South,182,1.0,2.0,93,0.00,,,0.01,VWS V14.01,2015-05-26 06:56:00,
2015-05-26 02:01:00,61.6,59.6,29.76,ESE,119,0.0,2.0,93,0.00,,,0.01,VWS V14.01,2015-05-26 07:01:00,
2015-05-26 02:06:00,61.6,59.6,29.78,SSE,153,0.0,2.0,93,0.00,,,0.01,VWS V14.01,2015-05-26 07:06:00,
2015-05-26 02:11:00,61.5,59.8,29.78,SSE,155,1.0,2.0,94,0.00,,,0.01,VWS V14.01,2015-05-26 07:11:00,
2015-05-26 02:16:00,61.4,59.4,29.78,SSE,165,0.0,2.0,93,0.00,,,0.01,VWS V14.01,2015-05-26 07:16:00,
2015-05-26 02:21:00,61.4,59.4,29.78,SSE,165,0.0,2.0,93,0.00,,,0.01,VWS V14.01,2015-05-26 07:21:00,
2015-05-26 02:26:00,61.3,59.3,29.78,South,189,0.0,2.0,93,0.00,,,0.01,VWS V14.01,2015-05-26 07:26:00,
2015-05-26 02:36:00,61.1,59.1,29.78,South,180,0.0,2.0,93,0.00,,,0.01,VWS V14.01,2015-05-26 07:36:00,
2015-05-26 02:41:00,61.1,59.1,29.78,South,179,0.0,2.0,93,0.00,,,0.01,VWS V14.01,2015-05-26 07:41:00,
2015-05-26 02:51:00,61.0,58.7,29.77,South,173,0.0,2.0,92,0.00,,,0.01,VWS V14.01,2015-05-26 07:51:00,
2015-05-26 02:56:00,60.9,58.6,29.77,South,185,0.0,2.0,92,0.00,,,0.01,VWS V14.01,2015-05-26 07:56:00,
2015-05-26 03:01:00,60.9,58.9,29.77,South,175,0.0,2.0,93,0.00,,,0.01,VWS V14.01,2015-05-26 08:01:00,
2015-05-26 03:06:00,60.8,58.8,29.78,SSE,148,0.0,2.0,93,0.00,,,0.01,VWS V14.01,2015-05-26 08:06:00,
2015-05-26 03:16:00,60.8,58.8,29.78,SSE,149,0.0,2.0,93,0.00,,,0.01,VWS V14.01,2015-05-26 08:16:00,
2015-05-26 03:26:00,61.0,59.0,29.78,SE,131,0.0,2.0,93,0.00,,,0.01,VWS V14.01,2015-05-26 08:26:00,
2015-05-26 03:36:00,61.0,59.0,29.79,SSE,168,0.0,2.0,93,0.00,,,0.01,VWS V14.01,2015-05-26 08:36:00,
2015-05-26 03:46:00,61.0,59.0,29.79,SSW,193,1.0,2.0,93,0.00,,,0.01,VWS V14.01,2015-05-26 08:46:00,
2015-05-26 03:56:00,61.0,59.0,29.80,South,172,0.0,2.0,93,0.00,,,0.01,VWS V14.01,2015-05-26 08:56:00,
2015-05-26 04:06:00,61.0,58.7,29.80,South,186,4.0,4.0,92,0.00,,,0.01,VWS V14.01,2015-05-26 09:06:00,
2015-05-26 04:11:00,60.9,58.6,29.80,SSE,164,0.0,2.0,92,0.00,,,0.01,VWS V14.01,2015-05-26 09:11:00,
2015-05-26 04:16:00,60.8,58.5,29.80,SE,126,2.0,2.0,92,0.00,,,0.01,VWS V14.01,2015-05-26 09:16:00,
2015-05-26 04:21:00,60.8,58.5,29.80,South,184,0.0,2.0,92,0.00,,,0.01,VWS V14.01,2015-05-26 09:21:00,
2015-05-26 04:26:00,60.8,58.5,29.80,SE,142,1.0,2.0,92,0.00,,,0.01,VWS V14.01,2015-05-26 09:26:00,
2015-05-26 04:31:00,60.8,58.5,29.80,ESE,109,1.0,2.0,92,0.00,,,0.01,VWS V14.01,2015-05-26 09:31:00,
2015-05-26 04:36:00,60.9,58.9,29.82,SSE,160,2.0,2.0,93,0.00,,,0.01,VWS V14.01,2015-05-26 09:36:00,
2015-05-26 04:41:00,60.9,58.9,29.82,SSE,155,0.0,2.0,93,0.00,,,0.01,VWS V14.01,2015-05-26 09:41:00,
2015-05-26 04:51:00,60.9,58.9,29.81,SE,132,0.0,2.0,93,0.00,,,0.01,VWS V14.01,2015-05-26 09:51:00,
2015-05-26 05:01:00,60.9,58.6,29.81,South,178,0.0,2.0,92,0.00,,,0.01,VWS V14.01,2015-05-26 10:01:00,
2015-05-26 05:06:00,60.9,58.6,29.82,SSE,161,3.0,3.0,92,0.00,,,0.01,VWS V14.01,2015-05-26 10:06:00,
2015-05-26 05:11:00,60.8,58.5,29.82,SE,135,3.0,3.0,92,0.00,,,0.01,VWS V14.01,2015-05-26 10:11:00,
2015-05-26 05:16:00,60.8,58.5,29.82,ESE,123,0.0,2.0,92,0.00,,,0.01,VWS V14.01,2015-05-26 10:16:00,
2015-05-26 05:21:00,60.7,58.4,29.83,South,178,3.0,3.0,92,0.00,,,0.01,VWS V14.01,2015-05-26 10:21:00,
2015-05-26 05:31:00,60.8,58.5,29.83,SSE,167,3.0,3.0,92,0.00,,,0.01,VWS V14.01,2015-05-26 10:31:00,
2015-05-26 05:36:00,60.9,58.6,29.84,SSE,160,1.0,2.0,92,0.00,,,0.01,VWS V14.01,2015-05-26 10:36:00,
2015-05-26 05:41:00,60.9,58.3,29.84,SSE,167,1.0,2.0,91,0.00,,,0.01,VWS V14.01,2015-05-26 10:41:00,
2015-05-26 05:51:00,60.9,58.3,29.85,ESE,110,1.0,2.0,91,0.00,,,0.01,VWS V14.01,2015-05-26 10:51:00,
2015-05-26 05:56:00,60.9,58.0,29.85,SSW,212,2.0,2.0,90,0.00,,,0.01,VWS V14.01,2015-05-26 10:56:00,
2015-05-26 06:01:00,60.9,58.0,29.85,South,179,3.0,3.0,90,0.00,,,0.01,VWS V14.01,2015-05-26 11:01:00,
2015-05-26 06:06:00,60.9,58.3,29.85,SE,129,2.0,2.0,91,0.00,,,0.01,VWS V14.01,2015-05-26 11:06:00,
2015-05-26 06:16:00,60.8,58.2,29.85,SE,143,2.0,2.0,91,0.00,,,0.01,VWS V14.01,2015-05-26 11:16:00,
2015-05-26 06:21:00,60.8,58.2,29.86,SSE,163,0.0,2.0,91,0.00,,,0.01,VWS V14.01,2015-05-26 11:21:00,
2015-05-26 06:26:00,60.8,58.2,29.86,South,178,1.0,2.0,91,0.00,,,0.01,VWS V14.01,2015-05-26 11:26:00,
2015-05-26 06:36:00,60.8,58.2,29.86,SE,138,0.0,2.0,91,0.00,,,0.01,VWS V14.01,2015-05-26 11:36:00,
2015-05-26 06:46:00,60.8,58.2,29.86,SSE,152,0.0,2.0,91,0.00,,,0.01,VWS V14.01,2015-05-26 11:46:00,
2015-05-26 06:51:00,60.9,58.3,29.85,SSE,150,0.0,2.0,91,0.00,,,0.01,VWS V14.01,2015-05-26 11:51:00,
2015-05-26 06:56:00,60.9,58.3,29.85,NW,306,0.0,2.0,91,0.00,,,0.01,VWS V14.01,2015-05-26 11:56:00,
2015-05-26 07:06:00,61.0,58.4,29.86,South,173,1.0,2.0,91,0.00,,,0.01,VWS V14.01,2015-05-26 12:06:00,
2015-05-26 07:11:00,61.0,58.4,29.86,SSE,150,2.0,2.0,91,0.00,,,0.01,VWS V14.01,2015-05-26 12:11:00,
2015-05-26 07:16:00,61.1,58.5,29.86,SSW,192,0.0,2.0,91,0.00,,,0.01,VWS V14.01,2015-05-26 12:16:00,
2015-05-26 07:21:00,61.1,58.8,29.87,South,172,1.0,2.0,92,0.00,,,0.01,VWS V14.01,2015-05-26 12:21:00,
2015-05-26 07:31:00,61.1,58.5,29.87,SSE,149,0.0,2.0,91,0.00,,,0.01,VWS V14.01,2015-05-26 12:31:00,
2015-05-26 07:36:00,61.2,58.9,29.88,SSW,209,0.0,2.0,92,0.00,,,0.01,VWS V14.01,2015-05-26 12:36:00,
2015-05-26 07:41:00,61.3,58.7,29.88,South,172,1.0,2.0,91,0.00,,,0.01,VWS V14.01,2015-05-26 12:41:00,
2015-05-26 07:46:00,61.3,58.7,29.88,South,187,0.0,2.0,91,0.00,,,0.01,VWS V14.01,2015-05-26 12:46:00,
2015-05-26 07:56:00,61.5,58.8,29.88,SSE,155,1.0,2.0,91,0.00,,,0.01,VWS V14.01,2015-05-26 12:56:00,
2015-05-26 08:01:00,61.6,58.6,29.88,SSE,161,0.0,2.0,90,0.00,,,0.01,VWS V14.01,2015-05-26 13:01:00,
2015-05-26 08:11:00,61.9,59.2,29.89,SSE,149,0.0,2.0,91,0.00,,,0.01,VWS V14.01,2015-05-26 13:11:00,
2015-05-26 08:16:00,62.0,59.0,29.89,SSE,164,0.0,2.0,90,0.00,,,0.01,VWS V14.01,2015-05-26 13:16:00,
2015-05-26 08:21:00,61.9,58.9,29.90,SE,125,1.0,2.0,90,0.00,,,0.01,VWS V14.01,2015-05-26 13:21:00,
2015-05-26 08:26:00,62.0,59.3,29.90,SSE,147,2.0,2.0,91,0.00,,,0.01,VWS V14.01,2015-05-26 13:26:00,
2015-05-26 08:31:00,62.0,59.0,29.90,SSE,151,1.0,2.0,90,0.00,,,0.01,VWS V14.01,2015-05-26 13:31:00,
2015-05-26 08:36:00,62.2,59.5,29.90,SSE,147,1.0,2.0,91,0.00,,,0.01,VWS V14.01,2015-05-26 13:36:00,
2015-05-26 08:41:00,62.3,59.3,29.90,NE,35,1.0,2.0,90,0.00,,,0.01,VWS V14.01,2015-05-26 13:41:00,
2015-05-26 08:46:00,62.3,59.3,29.90,WSW,257,0.0,2.0,90,0.00,,,0.01,VWS V14.01,2015-05-26 13:46:00,
2015-05-26 08:56:00,62.6,59.6,29.91,SE,146,2.0,2.0,90,0.00,,,0.01,VWS V14.01,2015-05-26 13:56:00,
2015-05-26 09:01:00,62.9,59.6,29.91,SE,124,0.0,2.0,89,0.00,,,0.01,VWS V14.01,2015-05-26 14:01:00,
2015-05-26 09:06:00,62.9,59.6,29.91,SSW,200,1.0,2.0,89,0.00,,,0.01,VWS V14.01,2015-05-26 14:06:00,
2015-05-26 09:16:00,62.8,59.5,29.91,SSE,150,0.0,2.0,89,0.00,,,0.01,VWS V14.01,2015-05-26 14:16:00,
2015-05-26 09:21:00,62.8,59.8,29.92,SSE,161,0.0,2.0,90,0.00,,,0.01,VWS V14.01,2015-05-26 14:21:00,
2015-05-26 09:26:00,62.9,59.9,29.92,SSW,205,2.0,2.0,90,0.00,,,0.01,VWS V14.01,2015-05-26 14:26:00,
2015-05-26 09:36:00,63.1,59.8,29.92,South,180,0.0,2.0,89,0.00,,,0.01,VWS V14.01,2015-05-26 14:36:00,
2015-05-26 09:46:00,63.2,59.9,29.92,SSW,195,0.0,2.0,89,0.00,,,0.01,VWS V14.01,2015-05-26 14:46:00,
2015-05-26 09:51:00,63.3,59.7,29.92,SSW,196,0.0,2.0,88,0.00,,,0.01,VWS V14.01,2015-05-26 14:51:00,
2015-05-26 09:56:00,63.4,59.8,29.92,SSE,157,1.0,2.0,88,0.00,,,0.01,VWS V14.01,2015-05-26 14:56:00,
2015-05-26 10:01:00,63.6,60.0,29.92,WNW,298,1.0,2.0,88,0.00,,,0.01,VWS V14.01,2015-05-26 15:01:00,
2015-05-26 10:06:00,63.9,60.0,29.93,South,169,0.0,2.0,87,0.00,,,0.01,VWS V14.01,2015-05-26 15:06:00,
2015-05-26 10:16:00,65.2,60.2,29.93,NNE,32,1.0,2.0,84,0.00,,,0.01,VWS V14.01,2015-05-26 15:16:00,
2015-05-26 10:21:00,64.8,60.2,29.92,SSE,156,2.0,2.0,85,0.00,,,0.01,VWS V14.01,2015-05-26 15:21:00,
2015-05-26 10:26:00,64.8,60.5,29.92,NNE,33,0.0,2.0,86,0.00,,,0.01,VWS V14.01,2015-05-26 15:26:00,
2015-05-26 10:31:00,65.4,61.4,29.92,SW,232,0.0,2.0,87,0.00,,,0.01,VWS V14.01,2015-05-26 15:31:00,
2015-05-26 10:36:00,65.7,61.1,29.92,ESE,118,0.0,2.0,85,0.00,,,0.01,VWS V14.01,2015-05-26 15:36:00,
2015-05-26 10:41:00,66.3,62.0,29.92,ESE,119,1.0,2.0,86,0.00,,,0.01,VWS V14.01,2015-05-26 15:41:00,
2015-05-26 10:46:00,66.2,61.2,29.92,ESE,117,3.0,3.0,84,0.00,,,0.01,VWS V14.01,2015-05-26 15:46:00,
2015-05-26 10:51:00,65.9,61.3,29.92,South,180,0.0,2.0,85,0.00,,,0.01,VWS V14.01,2015-05-26 15:51:00,
2015-05-26 10:56:00,66.3,61.0,29.92,SSE,155,3.0,3.0,83,0.00,,,0.01,VWS V14.01,2015-05-26 15:56:00,
2015-05-26 11:06:00,66.4,61.1,29.93,West,261,0.0,2.0,83,0.00,,,0.01,VWS V14.01,2015-05-26 16:06:00,
2015-05-26 11:16:00,66.8,61.5,29.93,South,169,1.0,2.0,83,0.00,,,0.01,VWS V14.01,2015-05-26 16:16:00,
2015-05-26 11:26:00,66.8,61.5,29.93,SSE,160,0.0,2.0,83,0.00,,,0.01,VWS V14.01,2015-05-26 16:26:00,
2015-05-26 11:31:00,67.2,61.9,29.93,SSE,167,0.0,2.0,83,0.00,,,0.01,VWS V14.01,2015-05-26 16:31:00,
2015-05-26 11:36:00,67.5,62.5,29.94,SE,128,2.0,2.0,84,0.00,,,0.01,VWS V14.01,2015-05-26 16:36:00,
2015-05-26 11:41:00,67.6,61.6,29.94,SE,144,0.0,2.0,81,0.00,,,0.01,VWS V14.01,2015-05-26 16:41:00,
2015-05-26 11:46:00,67.9,61.5,29.94,South,187,0.0,2.0,80,0.00,,,0.01,VWS V14.01,2015-05-26 16:46:00,
2015-05-26 11:51:00,68.1,61.7,29.95,SSE,153,0.0,2.0,80,0.00,,,0.01,VWS V14.01,2015-05-26 16:51:00,
2015-05-26 11:56:00,68.7,61.9,29.95,WSW,246,2.0,2.0,79,0.00,,,0.01,VWS V14.01,2015-05-26 16:56:00,
2015-05-26 12:01:00,69.2,63.8,29.95,SSW,197,2.0,2.0,83,0.00,,,0.01,VWS V14.01,2015-05-26 17:01:00,
2015-05-26 12:06:00,69.4,63.0,29.96,SE,142,0.0,2.0,80,0.00,,,0.01,VWS V14.01,2015-05-26 17:06:00,
2015-05-26 12:11:00,69.1,62.7,29.96,SE,144,0.0,2.0,80,0.00,,,0.01,VWS V14.01,2015-05-26 17:11:00,
2015-05-26 12:16:00,69.0,62.2,29.96,South,169,2.0,2.0,79,0.00,,,0.01,VWS V14.01,2015-05-26 17:16:00,
2015-05-26 12:26:00,69.5,62.7,29.97,WNW,293,1.0,2.0,79,0.00,,,0.01,VWS V14.01,2015-05-26 17:26:00,
2015-05-26 12:31:00,69.5,62.0,29.97,East,99,0.0,2.0,77,0.00,,,0.01,VWS V14.01,2015-05-26 17:31:00,
2015-05-26 12:36:00,69.8,61.9,29.97,SSW,192,0.0,2.0,76,0.00,,,0.01,VWS V14.01,2015-05-26 17:36:00,
2015-05-26 12:46:00,71.0,62.7,29.97,SSE,159,0.0,2.0,75,0.00,,,0.01,VWS V14.01,2015-05-26 17:46:00,
2015-05-26 12:51:00,70.4,63.2,29.96,SW,225,0.0,2.0,78,0.00,,,0.01,VWS V14.01,2015-05-26 17:51:00,
2015-05-26 12:56:00,70.3,61.6,29.96,SW,219,0.0,2.0,74,0.00,,,0.01,VWS V14.01,2015-05-26 17:56:00,
2015-05-26 13:01:00,70.8,63.2,29.96,SSW,203,0.0,2.0,77,0.00,,,0.01,VWS V14.01,2015-05-26 18:01:00,
2015-05-26 13:11:00,70.6,62.3,29.96,SE,143,2.0,2.0,75,0.00,,,0.01,VWS V14.01,2015-05-26 18:11:00,
2015-05-26 13:16:00,70.9,63.7,29.96,SW,225,0.0,2.0,78,0.00,,,0.01,VWS V14.01,2015-05-26 18:16:00,
2015-05-26 13:26:00,72.0,64.0,29.96,SSE,164,3.0,3.0,76,0.00,,,0.01,VWS V14.01,2015-05-26 18:26:00,
2015-05-26 13:36:00,72.6,63.8,29.95,SSE,167,1.0,2.0,74,0.00,,,0.01,VWS V14.01,2015-05-26 18:36:00,
2015-05-26 13:46:00,73.2,64.8,29.95,South,171,0.0,2.0,75,0.00,,,0.01,VWS V14.01,2015-05-26 18:46:00,
2015-05-26 13:51:00,73.3,64.1,29.95,South,190,0.0,2.0,73,0.00,,,0.01,VWS V14.01,2015-05-26 18:51:00,
2015-05-26 13:56:00,72.7,63.5,29.95,South,180,3.0,3.0,73,0.00,,,0.01,VWS V14.01,2015-05-26 18:56:00,
2015-05-26 14:01:00,72.6,64.2,29.95,SE,140,0.0,2.0,75,0.00,,,0.01,VWS V14.01,2015-05-26 19:01:00,
2015-05-26 14:06:00,72.9,63.8,29.95,South,179,0.0,2.0,73,0.00,,,0.01,VWS V14.01,2015-05-26 19:06:00,
2015-05-26 14:16:00,73.9,64.7,29.95,SSW,212,1.0,2.0,73,0.00,,,0.01,VWS V14.01,2015-05-26 19:16:00,
2015-05-26 14:21:00,74.0,64.0,29.94,SSE,155,1.0,2.0,71,0.00,,,0.01,VWS V14.01,2015-05-26 19:21:00,
2015-05-26 14:31:00,74.4,65.2,29.94,SSW,192,0.0,2.0,73,0.00,,,0.01,VWS V14.01,2015-05-26 19:31:00,
2015-05-26 14:41:00,73.7,63.7,29.94,SE,145,4.0,4.0,71,0.00,,,0.01,VWS V14.01,2015-05-26 19:41:00,
2015-05-26 14:51:00,74.4,65.2,29.94,ESE,123,3.0,3.0,73,0.00,,,0.01,VWS V14.01,2015-05-26 19:51:00,
2015-05-26 15:01:00,74.9,64.1,29.94,SE,136,0.0,2.0,69,0.00,,,0.01,VWS V14.01,2015-05-26 20:01:00,
2015-05-26 15:06:00,74.9,64.5,29.93,South,171,0.0,2.0,70,0.00,,,0.01,VWS V14.01,2015-05-26 20:06:00,
2015-05-26 15:11:00,74.9,64.5,29.93,ESE,113,0.0,2.0,70,0.00,,,0.01,VWS V14.01,2015-05-26 20:11:00,
2015-05-26 15:16:00,75.1,65.1,29.93,South,180,1.0,2.0,71,0.00,,,0.01,VWS V14.01,2015-05-26 20:16:00,
2015-05-26 15:21:00,75.0,65.0,29.93,SSE,156,1.0,2.0,71,0.00,,,0.01,VWS V14.01,2015-05-26 20:21:00,
2015-05-26 15:31:00,75.2,65.6,29.93,SSE,154,0.0,2.0,72,0.00,,,0.01,VWS V14.01,2015-05-26 20:31:00,
2015-05-26 15:36:00,75.5,64.2,29.93,South,173,5.0,5.0,68,0.00,,,0.01,VWS V14.01,2015-05-26 20:36:00,
2015-05-26 15:41:00,75.7,64.8,29.93,SSE,157,1.0,2.0,69,0.00,,,0.01,VWS V14.01,2015-05-26 20:41:00,
2015-05-26 15:46:00,75.8,64.1,29.93,South,172,0.0,2.0,67,0.00,,,0.01,VWS V14.01,2015-05-26 20:46:00,
2015-05-26 15:51:00,76.4,65.9,29.92,SW,230,0.0,2.0,70,0.00,,,0.01,VWS V14.01,2015-05-26 20:51:00,
2015-05-26 15:56:00,77.2,66.2,29.92,SW,233,4.0,4.0,69,0.00,,,0.01,VWS V14.01,2015-05-26 20:56:00,
2015-05-26 16:06:00,76.6,64.4,29.92,SE,139,2.0,2.0,66,0.00,,,0.01,VWS V14.01,2015-05-26 21:06:00,
2015-05-26 16:16:00,76.4,63.8,29.92,SSE,164,0.0,2.0,65,0.00,,,0.01,VWS V14.01,2015-05-26 21:16:00,
2015-05-26 16:21:00,76.6,66.5,29.91,SSE,164,2.0,2.0,71,0.00,,,0.01,VWS V14.01,2015-05-26 21:21:00,
2015-05-26 16:26:00,76.6,63.5,29.91,SSE,156,2.0,2.0,64,0.00,,,0.01,VWS V14.01,2015-05-26 21:26:00,
2015-05-26 16:31:00,76.6,64.4,29.91,ESE,108,0.0,2.0,66,0.00,,,0.01,VWS V14.01,2015-05-26 21:31:00,
2015-05-26 16:36:00,76.9,66.0,29.91,East,91,0.0,2.0,69,0.00,,,0.01,VWS V14.01,2015-05-26 21:36:00,
2015-05-26 16:46:00,77.4,63.8,29.91,ESE,109,0.0,2.0,63,0.00,,,0.01,VWS V14.01,2015-05-26 21:46:00,
2015-05-26 16:56:00,77.5,64.4,29.91,SSW,194,0.0,2.0,64,0.00,,,0.01,VWS V14.01,2015-05-26 21:56:00,
2015-05-26 17:01:00,77.8,63.3,29.91,SSW,203,0.0,2.0,61,0.00,,,0.01,VWS V14.01,2015-05-26 22:01:00,
2015-05-26 17:06:00,77.8,62.8,29.91,ENE,62,0.0,2.0,60,0.00,,,0.01,VWS V14.01,2015-05-26 22:06:00,
2015-05-26 17:11:00,77.4,63.4,29.91,South,182,2.0,2.0,62,0.00,,,0.01,VWS V14.01,2015-05-26 22:11:00,
2015-05-26 17:16:00,77.5,61.6,29.91,SE,140,0.0,2.0,58,0.00,,,0.01,VWS V14.01,2015-05-26 22:16:00,
2015-05-26 17:26:00,77.6,61.7,29.91,SSE,167,1.0,2.0,58,0.00,,,0.01,VWS V14.01,2015-05-26 22:26:00,
2015-05-26 17:31:00,77.8,62.8,29.91,South,170,2.0,2.0,60,0.00,,,0.01,VWS V14.01,2015-05-26 22:31:00,
2015-05-26 17:41:00,76.9,61.5,29.91,SSE,164,0.0,2.0,59,0.00,,,0.01,VWS V14.01,2015-05-26 22:41:00,
2015-05-26 17:46:00,76.6,62.2,29.91,NW,305,0.0,2.0,61,0.00,,,0.01,VWS V14.01,2015-05-26 22:46:00,
2015-05-26 17:56:00,76.6,62.6,29.90,SE,146,0.0,2.0,62,0.00,,,0.01,VWS V14.01,2015-05-26 22:56:00,
2015-05-26 18:06:00,76.3,62.8,29.90,South,169,0.0,2.0,63,0.00,,,0.01,VWS V14.01,2015-05-26 23:06:00,
2015-05-26 18:11:00,76.0,62.0,29.90,SSE,168,0.0,2.0,62,0.00,,,0.01,VWS V14.01,2015-05-26 23:11:00,
2015-05-26 18:16:00,75.6,62.6,29.90,South,176,0.0,2.0,64,0.00,,,0.01,VWS V14.01,2015-05-26 23:16:00,
2015-05-26 18:21:00,75.3,63.2,29.90,South,188,0.0,2.0,66,0.00,,,0.01,VWS V14.01,2015-05-26 23:21:00,
2015-05-26 18:31:00,75.0,63.3,29.90,South,188,0.0,2.0,67,0.00,,,0.01,VWS V14.01,2015-05-26 23:31:00,
2015-05-26 18:36:00,74.9,63.6,29.89,South,189,0.0,2.0,68,0.00,,,0.01,VWS V14.01,2015-05-26 23:36:00,
2015-05-26 18:46:00,74.6,65.0,29.89,South,189,0.0,2.0,72,0.00,,,0.01,VWS V14.01,2015-05-26 23:46:00,
2015-05-26 18:56:00,74.0,66.0,29.88,South,189,0.0,2.0,76,0.00,,,0.01,VWS V14.01,2015-05-26 23:56:00,
2015-05-26 19:01:00,73.4,64.2,29.88,South,188,1.0,2.0,73,0.00,,,0.01,VWS V14.01,2015-05-27 00:01:00,
2015-05-26 19:06:00,73.0,63.8,29.88,South,188,0.0,2.0,73,0.00,,,0.01,VWS V14.01,2015-05-27 00:06:00,
2015-05-26 19:11:00,72.8,64.0,29.88,NE,34,0.0,2.0,74,0.00,,,0.01,VWS V14.01,2015-05-27 00:11:00,
2015-05-26 19:21:00,72.6,65.7,29.88,SW,221,0.0,2.0,79,0.00,,,0.01,VWS V14.01,2015-05-27 00:21:00,
2015-05-26 19:26:00,72.4,65.9,29.88,SW,221,0.0,2.0,80,0.00,,,0.01,VWS V14.01,2015-05-27 00:26:00,
2015-05-26 19:31:00,72.1,65.6,29.88,SW,221,0.0,2.0,80,0.00,,,0.01,VWS V14.01,2015-05-27 00:31:00,
2015-05-26 19:36:00,71.9,64.7,29.90,SW,221,0.0,2.0,78,0.00,,,0.01,VWS V14.01,2015-05-27 00:36:00,
2015-05-26 19:51:00,71.1,63.9,29.91,SW,221,0.0,2.0,78,0.00,,,0.01,VWS V14.01,2015-05-27 00:51:00,
2015-05-26 19:56:00,70.7,63.5,29.91,SW,221,0.0,2.0,78,0.00,,,0.01,VWS V14.01,2015-05-27 00:56:00,
2015-05-26 20:01:00,70.5,63.7,29.91,SW,220,0.0,2.0,79,0.00,,,0.01,VWS V14.01,2015-05-27 01:01:00,
2015-05-26 20:06:00,70.6,63.8,29.92,SW,219,0.0,2.0,79,0.00,,,0.01,VWS V14.01,2015-05-27 01:06:00,
2015-05-26 20:11:00,70.9,63.7,29.92,SE,131,0.0,2.0,78,0.00,,,0.01,VWS V14.01,2015-05-27 01:11:00,
2015-05-26 20:16:00,70.8,63.6,29.92,SE,130,0.0,2.0,78,0.00,,,0.01,VWS V14.01,2015-05-27 01:16:00,
2015-05-26 20:21:00,70.5,63.3,29.92,SE,142,0.0,2.0,78,0.00,,,0.01,VWS V14.01,2015-05-27 01:21:00,
2015-05-26 20:26:00,70.2,63.4,29.92,SE,142,0.0,2.0,79,0.00,,,0.01,VWS V14.01,2015-05-27 01:26:00,
2015-05-26 20:36:00,69.4,63.3,29.92,SE,142,0.0,2.0,81,0.00,,,0.01,VWS V14.01,2015-05-27 01:36:00,
2015-05-26 20:41:00,69.0,63.3,29.92,SE,142,0.0,2.0,82,0.00,,,0.01,VWS V14.01,2015-05-27 01:41:00,
2015-05-26 20:46:00,68.6,63.2,29.92,SE,142,0.0,2.0,83,0.00,,,0.01,VWS V14.01,2015-05-27 01:46:00,
2015-05-26 20:51:00,68.3,63.3,29.93,SE,142,0.0,2.0,84,0.00,,,0.01,VWS V14.01,2015-05-27 01:51:00,
2015-05-26 20:56:00,67.9,63.2,29.93,SE,142,0.0,2.0,85,0.00,,,0.01,VWS V14.01,2015-05-27 01:56:00,